Weather History for Marshfield, MA

Change the Weather History Date:

Tuesday, June 11, 2013

  Actual Average (KPYM) Record (KPYM)
Temperature  
Mean Temperature 60 °F -  
Max Temperature 66 °F 74 °F 94 °F (1984)
Min Temperature 55 °F 52 °F 39 °F (1980)
Degree Days  
Heating Degree Days 4    
Growing Degree Days 10 (Base 50)    
Moisture  
Dew Point 57 °F    
Average Humidity 95    
Maximum Humidity 100    
Minimum Humidity 82    
Precipitation  
Precipitation 1.05 in - - ()
Sea Level Pressure  
Sea Level Pressure 29.73 in    
Wind  
Wind Speed - (North)    
Max Wind Speed -    
Max Gust Speed -    
Visibility 6 miles    
Events Rain    
Averages and records for this station are not official NWS values.
T = Trace of Precipitation, MM = Missing Value Source: NWS Daily Summary

Daily Weather History Graph

Daily Weather History Graph

Search for Another Location

Airport:

Trip Planner

Search our weather history database for the weather conditions in past years. The results will help you decide how hot, cold, wet, or windy it might be!

Date:

Astronomy

Jun. 11, 2013 Rise Set
Actual Time 5:06 AM EDT 8:18 PM EDT
Civil Twilight 4:31 AM EDT 8:53 PM EDT
Nautical Twilight 3:47 AM EDT 9:37 PM EDT
Astronomical Twilight 2:54 AM EDT 10:30 PM EDT
Moon 7:48 AM EDT (6/11) 10:17 PM EDT (6/11)
Length of Visible Light 16h 21m
Length of Day
15h 12m
Waxing Crescent, 8% of the Moon is Illuminated
Jun 11
Waxing Crescent
Jun 16
First Quarter
Jun 23
Full
Jun 30
Last Quarter
Jul 8
New

Hourly Weather History & Observations

Time (EDT) Temp. Dew Point Humidity Pressure Visibility Wind Dir Wind Speed Gust Speed Precip Events Conditions
12:15 AM 57.2 °F 57.2 °F 100% 30.04 in 2.5 mi North - - 0.06 in Rain Light Rain
12:35 AM 57.2 °F 57.2 °F 100% 30.02 in 3.0 mi North - - 0.10 in Rain Light Rain
12:55 AM 57.2 °F 57.2 °F 100% 30.00 in 2.5 mi North - - 0.13 in Rain Light Rain
1:15 AM 59.0 °F 57.2 °F 94% 29.99 in 3.0 mi North - - N/A Rain Light Rain
1:35 AM 57.2 °F 57.2 °F 100% 29.98 in 2.0 mi North - - 0.09 in Rain Rain
1:55 AM 57.2 °F 57.2 °F 100% 29.96 in 1.8 mi North - - 0.19 in Rain Heavy Rain
2:15 AM 57.2 °F 57.2 °F 100% 29.95 in 1.5 mi North - - 0.09 in Rain Heavy Rain
2:35 AM 57.2 °F 57.2 °F 100% 29.94 in 3.0 mi North - - 0.11 in   Drizzle
2:55 AM 57.2 °F 57.2 °F 100% 29.92 in 4.0 mi North - - 0.13 in Rain Light Rain
3:15 AM 57.2 °F 57.2 °F 100% 29.90 in 2.0 mi North - - 0.04 in Rain Rain
3:35 AM 57.2 °F 57.2 °F 100% 29.89 in 1.5 mi North - - 0.08 in Rain Rain
3:55 AM 57.2 °F 57.2 °F 100% 29.88 in 3.0 mi North - - 0.10 in   Light Drizzle
4:15 AM 59.0 °F 57.2 °F 94% 29.87 in 1.5 mi North - - 0.03 in Rain Rain
1:35 PM 66.2 °F 62.6 °F 88% 29.69 in 10.0 mi North - - N/A   Overcast
1:55 PM 66.2 °F 62.6 °F 88% 29.69 in 10.0 mi North - - N/A   Overcast
2:15 PM 66.2 °F 62.6 °F 88% 29.69 in 10.0 mi North - - N/A   Overcast
2:35 PM 64.4 °F 60.8 °F 88% 29.68 in 10.0 mi North - - N/A   Overcast
2:55 PM 62.6 °F 59.0 °F 88% 29.68 in 10.0 mi North - - N/A   Overcast
3:15 PM 62.6 °F 57.2 °F 82% 29.67 in 10.0 mi North - - N/A   Overcast
3:35 PM 62.6 °F 57.2 °F 82% 29.67 in 10.0 mi North - - N/A   Overcast
3:55 PM 62.6 °F 57.2 °F 82% 29.66 in 10.0 mi North - - N/A   Overcast
4:15 PM 60.8 °F 57.2 °F 88% 29.66 in 10.0 mi North - - N/A   Overcast
4:35 PM 60.8 °F 57.2 °F 88% 29.65 in 10.0 mi North - - N/A   Overcast
4:55 PM 60.8 °F 57.2 °F 88% 29.65 in 10.0 mi North - - N/A   Mostly Cloudy
5:15 PM 60.8 °F 57.2 °F 88% 29.64 in 10.0 mi North - - N/A   Mostly Cloudy
5:35 PM 60.8 °F 55.4 °F 82% 29.63 in 10.0 mi North - - N/A   Overcast
5:55 PM 57.2 °F 55.4 °F 94% 29.63 in 10.0 mi North - - N/A   Overcast
6:15 PM 57.2 °F 55.4 °F 94% 29.64 in 7.0 mi North - - N/A Rain Light Rain
6:35 PM 57.2 °F 55.4 °F 94% 29.63 in 6.0 mi North - - 0.09 in   Light Drizzle
6:55 PM 57.2 °F 55.4 °F 94% 29.63 in 4.0 mi North - - 0.13 in Rain Heavy Rain
7:15 PM 55.4 °F 55.4 °F 100% 29.62 in 3.0 mi North - - 0.05 in Rain Heavy Rain
7:35 PM 55.4 °F 55.4 °F 100% 29.62 in 2.5 mi North - - 0.11 in Rain Rain
7:55 PM 55.4 °F 55.4 °F 100% 29.60 in 2.0 mi North - - 0.17 in Rain Rain
8:15 PM 55.4 °F 55.4 °F 100% 29.59 in 4.0 mi North - - N/A   Heavy Drizzle
8:35 PM 55.4 °F 55.4 °F 100% 29.59 in 1.2 mi North - - 0.07 in Rain Rain
8:55 PM 55.4 °F 53.6 °F 94% 29.61 in 1.2 mi North - - 0.17 in Rain Heavy Rain
9:15 PM 55.4 °F 55.4 °F 100% 29.61 in 9.0 mi North - - N/A   Light Drizzle
9:35 PM 55.4 °F 53.6 °F 94% 29.62 in 10.0 mi North - - N/A   Light Drizzle
9:55 PM 55.4 °F 55.4 °F 100% 29.62 in 1.8 mi North - - N/A   Drizzle
10:15 PM 55.4 °F 55.4 °F 100% 29.62 in 4.0 mi North - - N/A   Light Drizzle
10:35 PM 55.4 °F 55.4 °F 100% 29.62 in 10.0 mi North - - N/A   Light Drizzle
10:55 PM 55.4 °F 55.4 °F 100% 29.62 in 10.0 mi North - - N/A   Light Drizzle
11:15 PM 55.4 °F 55.4 °F 100% 29.62 in 10.0 mi North - - N/A   Light Drizzle
11:35 PM 55.4 °F 55.4 °F 100% 29.62 in 10.0 mi North - - N/A   Light Drizzle
11:55 PM 55.4 °F 55.4 °F 100% 29.61 in 10.0 mi North - - N/A   Light Drizzle